When you browse on this site, cookies collect data to enhance your experience and personalize the content and advertising you see.
Visit our Privacy Policy to learn more. By continuing to use the site, you agree to this use of cookies and data.
  • In Hungary
  • List of Countries
  • For 7 days
  • Water Temperature
  • Weather Map
  • News
  • Weather Widgets
  • user-avatar
    Login

    Hourly Weather Klyukino

    Today, 16 February, Sunday

    Time Temperature Precipitation Wind Pressure Humidity
    00:00 -1°C° 0 mm 5 mps 757 mmHg 74%
    01:00 -2°C° 0 mm 5 mps 757 mmHg 75%
    02:00 -1°C° 0 mm 4 mps 757 mmHg 77%
    03:00 -1°C° 0.1 mm 5 mps 756 mmHg 82%
    04:00 -2°C° 0.1 mm 5 mps 756 mmHg 86%
    05:00 -2°C° 0.1 mm 5 mps 756 mmHg 91%
    06:00 -1°C° 0 mm 4 mps 755 mmHg 87%
    07:00 -1°C° 0 mm 4 mps 755 mmHg 83%
    08:00 -1°C° 0 mm 4 mps 755 mmHg 78%
    09:00 -1°C° 0 mm 4 mps 754 mmHg 78%
    10:00 0°C° 0 mm 5 mps 753 mmHg 78%
    11:00 -1°C° 0 mm 6 mps 753 mmHg 77%
    12:00 +1°C° 0 mm 6 mps 752 mmHg 74%
    13:00 +1°C° 0 mm 6 mps 752 mmHg 70%
    14:00 +2°C° 0 mm 6 mps 751 mmHg 66%
    15:00 +1°C° 0 mm 6 mps 751 mmHg 68%
    16:00 +1°C° 0 mm 6 mps 750 mmHg 70%
    17:00 +1°C° 0 mm 6 mps 749 mmHg 72%
    18:00 +1°C° 0 mm 6 mps 749 mmHg 72%
    19:00 +1°C° 0 mm 6 mps 748 mmHg 73%
    20:00 +1°C° 0 mm 6 mps 748 mmHg 73%
    21:00 +1°C° 0.2 mm 6 mps 747 mmHg 77%
    22:00 0°C° 0.2 mm 7 mps 746 mmHg 80%
    23:00 0°C° 0.2 mm 7 mps 746 mmHg 84%

    Tomorrow, 17 February, Monday

    Time Temperature Precipitation Wind Pressure Humidity
    00:00 +2°C° 0.5 mm 7 mps 745 mmHg 84%
    01:00 +2°C° 0.5 mm 7 mps 745 mmHg 84%
    02:00 +2°C° 0.5 mm 7 mps 744 mmHg 84%
    03:00 +3°C° 0 mm 7 mps 743 mmHg 83%
    04:00 +3°C° 0 mm 7 mps 743 mmHg 83%
    05:00 +3°C° 0 mm 7 mps 742 mmHg 82%
    06:00 +4°C° 0.1 mm 7 mps 742 mmHg 81%
    07:00 +4°C° 0.1 mm 8 mps 741 mmHg 80%
    08:00 +4°C° 0.1 mm 8 mps 741 mmHg 79%
    09:00 +5°C° 0 mm 8 mps 741 mmHg 76%
    10:00 +6°C° 0 mm 8 mps 741 mmHg 74%
    11:00 +7°C° 0 mm 8 mps 741 mmHg 71%
    12:00 +7°C° 0.1 mm 8 mps 741 mmHg 66%
    13:00 +6°C° 0.1 mm 7 mps 742 mmHg 61%
    14:00 +6°C° 0.1 mm 7 mps 743 mmHg 55%
    15:00 +5°C° 0.1 mm 6 mps 743 mmHg 58%
    16:00 +5°C° 0.1 mm 6 mps 743 mmHg 61%
    17:00 +4°C° 0.1 mm 6 mps 744 mmHg 64%
    18:00 +3°C° 0 mm 6 mps 744 mmHg 66%
    19:00 +3°C° 0 mm 6 mps 745 mmHg 68%
    20:00 +2°C° 0 mm 6 mps 746 mmHg 70%
    21:00 +2°C° 0 mm 6 mps 746 mmHg 70%
    22:00 +2°C° 0 mm 6 mps 746 mmHg 70%
    23:00 +1°C° 0 mm 6 mps 746 mmHg 71%

    Day after tomorrow, 18 February, Tuesday

    Time Temperature Precipitation Wind Pressure Humidity
    00:00 +1°C° 0 mm 6 mps 746 mmHg 71%
    01:00 +1°C° 0 mm 6 mps 746 mmHg 70%
    02:00 +1°C° 0 mm 6 mps 746 mmHg 70%
    03:00 +1°C° 0 mm 6 mps 746 mmHg 71%
    04:00 +2°C° 0 mm 6 mps 745 mmHg 71%
    05:00 +2°C° 0 mm 6 mps 745 mmHg 72%
    06:00 +2°C° 0 mm 6 mps 745 mmHg 73%
    07:00 +2°C° 0 mm 6 mps 745 mmHg 75%
    08:00 +1°C° 0 mm 6 mps 745 mmHg 77%
    09:00 +2°C° 0 mm 6 mps 745 mmHg 76%
    10:00 +2°C° 0 mm 6 mps 745 mmHg 75%
    11:00 +2°C° 0 mm 6 mps 746 mmHg 74%
    12:00 +2°C° 0 mm 6 mps 745 mmHg 74%
    13:00 +3°C° 0 mm 6 mps 745 mmHg 75%
    14:00 +3°C° 0 mm 6 mps 745 mmHg 75%
    15:00 +2°C° 0.1 mm 5 mps 745 mmHg 78%
    16:00 +2°C° 0.1 mm 5 mps 745 mmHg 80%
    17:00 +3°C° 0.1 mm 4 mps 745 mmHg 83%
    18:00 +3°C° 0 mm 4 mps 745 mmHg 82%
    19:00 +3°C° 0 mm 4 mps 745 mmHg 80%
    20:00 +1°C° 0 mm 4 mps 745 mmHg 79%
    21:00 +1°C° 0.1 mm 4 mps 745 mmHg 82%
    22:00 +1°C° 0.1 mm 5 mps 745 mmHg 84%
    23:00 +1°C° 0.1 mm 5 mps 745 mmHg 86%

    19 February, Wednesday

    Time Temperature Precipitation Wind Pressure Humidity
    00:00 +1°C° 0.2 mm 5 mps 745 mmHg 86%
    01:00 +1°C° 0.2 mm 5 mps 745 mmHg 86%
    02:00 0°C° 0.2 mm 5 mps 745 mmHg 86%
    03:00 0°C° 0 mm 5 mps 745 mmHg 88%
    04:00 0°C° 0 mm 5 mps 745 mmHg 90%
    05:00 -1°C° 0 mm 5 mps 746 mmHg 93%
    06:00 0°C° 0 mm 5 mps 746 mmHg 89%
    07:00 0°C° 0 mm 5 mps 746 mmHg 85%
    08:00 0°C° 0 mm 5 mps 747 mmHg 82%
    09:00 +1°C° 0 mm 5 mps 747 mmHg 78%
    10:00 +1°C° 0 mm 5 mps 747 mmHg 74%
    11:00 +2°C° 0 mm 6 mps 747 mmHg 71%
    12:00 +2°C° 0 mm 5 mps 747 mmHg 71%
    13:00 +2°C° 0 mm 5 mps 748 mmHg 71%
    14:00 +2°C° 0 mm 5 mps 748 mmHg 71%
    15:00 +1°C° 0 mm 5 mps 748 mmHg 74%
    16:00 +1°C° 0 mm 5 mps 748 mmHg 77%
    17:00 0°C° 0 mm 4 mps 748 mmHg 79%
    18:00 0°C° 0 mm 4 mps 748 mmHg 82%
    19:00 0°C° 0 mm 4 mps 748 mmHg 85%
    20:00 +1°C° 0 mm 3 mps 748 mmHg 88%
    21:00 +1°C° 0 mm 3 mps 748 mmHg 88%
    22:00 +1°C° 0 mm 3 mps 747 mmHg 88%
    23:00 +1°C° 0 mm 3 mps 747 mmHg 87%

    20 February, Thursday

    Time Temperature Precipitation Wind Pressure Humidity
    00:00 +1°C° 0 mm 3 mps 747 mmHg 88%
    01:00 +1°C° 0 mm 3 mps 747 mmHg 88%
    02:00 +1°C° 0 mm 3 mps 747 mmHg 88%
    03:00 0°C° 0.1 mm 4 mps 747 mmHg 90%
    04:00 0°C° 0.1 mm 4 mps 747 mmHg 93%
    05:00 -1°C° 0.1 mm 4 mps 747 mmHg 95%
    06:00 -1°C° 0.2 mm 4 mps 747 mmHg 93%
    07:00 -1°C° 0.2 mm 4 mps 748 mmHg 91%
    08:00 -1°C° 0.2 mm 4 mps 748 mmHg 89%
    09:00 0°C° 0 mm 4 mps 749 mmHg 85%
    10:00 0°C° 0 mm 4 mps 750 mmHg 81%
    11:00 +1°C° 0 mm 4 mps 750 mmHg 77%
    12:00 +2°C° 0 mm 3 mps 751 mmHg 75%
    13:00 +3°C° 0 mm 3 mps 751 mmHg 73%
    14:00 +3°C° 0 mm 3 mps 751 mmHg 71%
    15:00 +3°C° 0 mm 2 mps 751 mmHg 75%
    16:00 +3°C° 0 mm 2 mps 752 mmHg 79%
    17:00 +3°C° 0 mm 1 mps 752 mmHg 82%
    18:00 +2°C° 0 mm 1 mps 752 mmHg 85%
    19:00 +2°C° 0 mm 1 mps 753 mmHg 87%
    20:00 +2°C° 0 mm 1 mps 753 mmHg 89%
    21:00 +2°C° 0 mm 1 mps 753 mmHg 90%
    22:00 +2°C° 0 mm 1 mps 753 mmHg 90%
    23:00 +2°C° 0 mm 1 mps 753 mmHg 90%

    21 February, Friday

    Time Temperature Precipitation Wind Pressure Humidity
    00:00 +2°C° 0 mm 1 mps 753 mmHg 91%
    01:00 +2°C° 0 mm 1 mps 753 mmHg 92%
    02:00 +2°C° 0 mm 1 mps 753 mmHg 93%
    03:00 +1°C° 0 mm 2 mps 753 mmHg 94%
    04:00 +1°C° 0 mm 2 mps 753 mmHg 94%
    05:00 +1°C° 0 mm 2 mps 753 mmHg 95%
    06:00 +1°C° 0 mm 2 mps 753 mmHg 95%
    07:00 +1°C° 0 mm 2 mps 753 mmHg 94%
    08:00 +1°C° 0 mm 2 mps 753 mmHg 94%
    15:00 +1°C° 0 mm 5 mps 751 mmHg 77%
    16:00 +1°C° 0 mm 4 mps 750 mmHg 76%
    17:00 0°C° 0 mm 4 mps 750 mmHg 75%
    18:00 0°C° 0 mm 4 mps 750 mmHg 75%
    19:00 0°C° 0 mm 4 mps 750 mmHg 74%
    20:00 0°C° 0 mm 4 mps 750 mmHg 74%
    21:00 0°C° 0.1 mm 4 mps 750 mmHg 80%
    22:00 -1°C° 0.1 mm 5 mps 750 mmHg 87%
    23:00 -1°C° 0.1 mm 5 mps 749 mmHg 93%
    Show more